Time,TemperatureF,DewpointF,PressureIn,WindDirection,WindDirectionDegrees,WindSpeedMPH,WindSpeedGustMPH,Humidity,HourlyPrecipIn,Conditions,Clouds,dailyrainin,SoftwareType,DateUTC
2013-02-04 00:03:00,57.0,-99.9,30.16,NW,310,5.0,6.0,-999,-99.99,,,-99.99,,2013-02-04 05:03:00,
2013-02-04 00:12:00,57.0,-99.9,30.16,NW,311,5.0,6.0,-999,-99.99,,,-99.99,,2013-02-04 05:12:00,
2013-02-04 00:22:00,57.0,-99.9,30.15,NW,314,5.0,6.0,-999,-99.99,,,-99.99,,2013-02-04 05:22:00,
2013-02-04 00:33:00,57.0,-99.9,30.15,NW,319,4.0,5.0,-999,-99.99,,,-99.99,,2013-02-04 05:33:00,
2013-02-04 00:42:00,57.0,-99.9,30.15,NW,308,5.0,7.0,-999,-99.99,,,-99.99,,2013-02-04 05:42:00,
2013-02-04 00:52:00,57.0,-99.9,30.15,WNW,288,3.0,6.0,-999,-99.99,,,-99.99,,2013-02-04 05:52:00,
2013-02-04 01:02:00,56.0,-99.9,30.15,West,264,3.0,4.0,-999,-99.99,,,-99.99,,2013-02-04 06:02:00,
2013-02-04 01:11:00,55.0,-99.9,30.15,West,273,3.0,3.0,-999,-99.99,,,-99.99,,2013-02-04 06:11:00,
2013-02-04 01:22:00,55.0,-99.9,30.15,West,276,4.0,4.0,-999,-99.99,,,-99.99,,2013-02-04 06:22:00,
2013-02-04 01:32:00,54.0,-99.9,30.15,WNW,282,3.0,4.0,-999,-99.99,,,-99.99,,2013-02-04 06:32:00,
2013-02-04 01:42:00,55.0,-99.9,30.15,West,270,3.0,4.0,-999,-99.99,,,-99.99,,2013-02-04 06:42:00,
2013-02-04 01:52:00,54.0,-99.9,30.15,West,265,4.0,4.0,-999,-99.99,,,-99.99,,2013-02-04 06:52:00,
2013-02-04 02:02:00,53.0,-99.9,30.15,West,268,4.0,4.0,-999,-99.99,,,-99.99,,2013-02-04 07:02:00,
2013-02-04 02:11:00,54.0,-99.9,30.15,WNW,289,4.0,5.0,-999,-99.99,,,-99.99,,2013-02-04 07:11:00,
2013-02-04 02:22:00,56.0,-99.9,30.15,NW,311,4.0,6.0,-999,-99.99,,,-99.99,,2013-02-04 07:22:00,
2013-02-04 02:32:00,56.0,-99.9,30.14,NW,325,5.0,6.0,-999,-99.99,,,-99.99,,2013-02-04 07:32:00,
2013-02-04 02:42:00,56.0,-99.9,30.14,NNW,328,4.0,7.0,-999,-99.99,,,-99.99,,2013-02-04 07:42:00,
2013-02-04 02:52:00,57.0,-99.9,30.14,NW,324,5.0,8.0,-999,-99.99,,,-99.99,,2013-02-04 07:52:00,
2013-02-04 03:01:00,57.0,-99.9,30.14,NW,319,6.0,8.0,-999,-99.99,,,-99.99,,2013-02-04 08:01:00,
2013-02-04 03:11:00,57.0,-99.9,30.14,NW,312,5.0,6.0,-999,-99.99,,,-99.99,,2013-02-04 08:11:00,
2013-02-04 03:21:00,56.0,-99.9,30.14,NW,326,3.0,5.0,-999,-99.99,,,-99.99,,2013-02-04 08:21:00,
2013-02-04 03:32:00,57.0,-99.9,30.14,NW,304,3.0,4.0,-999,-99.99,,,-99.99,,2013-02-04 08:32:00,
2013-02-04 03:42:00,57.0,-99.9,30.14,NW,314,3.0,4.0,-999,-99.99,,,-99.99,,2013-02-04 08:42:00,
2013-02-04 03:52:00,57.0,-99.9,30.14,NW,321,3.0,4.0,-999,-99.99,,,-99.99,,2013-02-04 08:52:00,
2013-02-04 04:02:00,57.0,-99.9,30.14,NW,324,3.0,4.0,-999,-99.99,,,-99.99,,2013-02-04 09:02:00,
2013-02-04 04:11:00,56.0,-99.9,30.14,NNW,336,2.0,3.0,-999,-99.99,,,-99.99,,2013-02-04 09:11:00,
2013-02-04 04:22:00,57.0,-99.9,30.14,NW,318,0.0,3.0,-999,-99.99,,,-99.99,,2013-02-04 09:22:00,
2013-02-04 04:32:00,56.0,-99.9,30.14,NNW,332,2.0,3.0,-999,-99.99,,,-99.99,,2013-02-04 09:32:00,
2013-02-04 04:42:00,56.0,-99.9,30.14,North,352,2.0,3.0,-999,-99.99,,,-99.99,,2013-02-04 09:42:00,
2013-02-04 04:52:00,56.0,-99.9,30.14,NNW,343,2.0,3.0,-999,-99.99,,,-99.99,,2013-02-04 09:52:00,
2013-02-04 05:02:00,56.0,-99.9,30.14,NNW,338,1.0,3.0,-999,-99.99,,,-99.99,,2013-02-04 10:02:00,
2013-02-04 05:12:00,56.0,-99.9,30.14,NNW,338,1.0,2.0,-999,-99.99,,,-99.99,,2013-02-04 10:12:00,
2013-02-04 05:22:00,56.0,-99.9,30.14,NNW,336,2.0,4.0,-999,-99.99,,,-99.99,,2013-02-04 10:22:00,
2013-02-04 05:32:00,56.0,-99.9,30.13,North,355,2.0,3.0,-999,-99.99,,,-99.99,,2013-02-04 10:32:00,
2013-02-04 05:42:00,56.0,-99.9,30.13,North,6,4.0,5.0,-999,-99.99,,,-99.99,,2013-02-04 10:42:00,
2013-02-04 05:52:00,56.0,-99.9,30.12,North,3,3.0,5.0,-999,-99.99,,,-99.99,,2013-02-04 10:52:00,
2013-02-04 06:02:00,55.0,-99.9,30.12,North,9,1.0,3.0,-999,-99.99,,,-99.99,,2013-02-04 11:02:00,
2013-02-04 06:11:00,55.0,-99.9,30.12,North,-999,2.0,3.0,-999,-99.99,,,-99.99,,2013-02-04 11:11:00,
2013-02-04 06:22:00,55.0,-99.9,30.12,North,-999,3.0,5.0,-999,-99.99,,,-99.99,,2013-02-04 11:22:00,
2013-02-04 06:33:00,55.0,-99.9,30.13,North,356,2.0,5.0,-999,-99.99,,,-99.99,,2013-02-04 11:33:00,
2013-02-04 06:42:00,56.0,-99.9,30.13,WNW,303,1.0,2.0,-999,-99.99,,,-99.99,,2013-02-04 11:42:00,
2013-02-04 06:52:00,56.0,-99.9,30.13,North,351,3.0,4.0,-999,-99.99,,,-99.99,,2013-02-04 11:52:00,
2013-02-04 07:03:00,56.0,-99.9,30.14,NNW,339,2.0,4.0,-999,-99.99,,,-99.99,,2013-02-04 12:03:00,
2013-02-04 07:12:00,56.0,-99.9,30.14,North,349,2.0,3.0,-999,-99.99,,,-99.99,,2013-02-04 12:12:00,
2013-02-04 07:22:00,55.0,-99.9,30.14,NW,310,1.0,2.0,-999,-99.99,,,-99.99,,2013-02-04 12:22:00,
2013-02-04 07:33:00,55.0,-99.9,30.14,NW,313,0.0,1.0,-999,-99.99,,,-99.99,,2013-02-04 12:33:00,
2013-02-04 07:42:00,55.0,-99.9,30.14,North,358,1.0,2.0,-999,-99.99,,,-99.99,,2013-02-04 12:42:00,
2013-02-04 07:53:00,56.0,-99.9,30.14,North,4,1.0,2.0,-999,-99.99,,,-99.99,,2013-02-04 12:53:00,
2013-02-04 08:03:00,56.0,-99.9,30.15,North,5,1.0,2.0,-999,-99.99,,,-99.99,,2013-02-04 13:03:00,
2013-02-04 08:12:00,55.0,-99.9,30.16,NW,315,1.0,2.0,-999,-99.99,,,-99.99,,2013-02-04 13:12:00,
2013-02-04 08:22:00,55.0,-99.9,30.16,NW,307,-999.0,1.0,-999,-99.99,,,-99.99,,2013-02-04 13:22:00,
2013-02-04 08:33:00,56.0,-99.9,30.16,WSW,251,1.0,2.0,-999,-99.99,,,-99.99,,2013-02-04 13:33:00,
2013-02-04 08:42:00,56.0,-99.9,30.16,WNW,294,0.0,2.0,-999,-99.99,,,-99.99,,2013-02-04 13:42:00,
2013-02-04 08:52:00,58.0,-99.9,30.16,ENE,64,2.0,4.0,-999,-99.99,,,-99.99,,2013-02-04 13:52:00,
2013-02-04 09:03:00,60.0,-99.9,30.16,ENE,64,2.0,4.0,-999,-99.99,,,-99.99,,2013-02-04 14:03:00,
2013-02-04 09:12:00,60.0,-99.9,30.17,East,82,3.0,6.0,-999,-99.99,,,-99.99,,2013-02-04 14:12:00,
2013-02-04 09:23:00,58.0,-99.9,30.17,SSE,155,7.0,8.0,-999,-99.99,,,-99.99,,2013-02-04 14:23:00,
2013-02-04 09:33:00,58.0,-99.9,30.18,SSE,160,5.0,6.0,-999,-99.99,,,-99.99,,2013-02-04 14:33:00,
2013-02-04 09:42:00,57.0,-99.9,30.17,South,170,6.0,7.0,-999,-99.99,,,-99.99,,2013-02-04 14:42:00,
2013-02-04 09:53:00,58.0,-99.9,30.17,SE,140,4.0,6.0,-999,-99.99,,,-99.99,,2013-02-04 14:53:00,
2013-02-04 10:04:00,59.0,-99.9,30.18,SE,142,5.0,6.0,-999,-99.99,,,-99.99,,2013-02-04 15:04:00,
2013-02-04 10:13:00,58.0,-99.9,30.18,SE,144,5.0,6.0,-999,-99.99,,,-99.99,,2013-02-04 15:13:00,
2013-02-04 10:24:00,60.0,-99.9,30.17,ESE,116,4.0,6.0,-999,-99.99,,,-99.99,,2013-02-04 15:24:00,
2013-02-04 10:33:00,60.0,-99.9,30.18,ESE,113,4.0,6.0,-999,-99.99,,,-99.99,,2013-02-04 15:33:00,
2013-02-04 10:43:00,60.0,-99.9,30.18,ESE,104,3.0,5.0,-999,-99.99,,,-99.99,,2013-02-04 15:43:00,
2013-02-04 10:53:00,60.0,-99.9,30.17,East,91,4.0,7.0,-999,-99.99,,,-99.99,,2013-02-04 15:53:00,
2013-02-04 11:03:00,60.0,-99.9,30.17,ESE,106,4.0,6.0,-999,-99.99,,,-99.99,,2013-02-04 16:03:00,
2013-02-04 11:11:00,60.0,-99.9,30.17,East,97,4.0,6.0,-999,-99.99,,,-99.99,,2013-02-04 16:11:00,
2013-02-04 11:23:00,60.0,-99.9,30.17,East,89,3.0,5.0,-999,-99.99,,,-99.99,,2013-02-04 16:23:00,
2013-02-04 11:33:00,60.0,-99.9,30.16,East,79,5.0,6.0,-999,-99.99,,,-99.99,,2013-02-04 16:33:00,
2013-02-04 11:43:00,60.0,-99.9,30.17,ENE,64,3.0,6.0,-999,-99.99,,,-99.99,,2013-02-04 16:43:00,
2013-02-04 11:52:00,60.0,-99.9,30.16,East,87,4.0,5.0,-999,-99.99,,,-99.99,,2013-02-04 16:52:00,
2013-02-04 12:03:00,60.0,-99.9,30.16,East,87,4.0,5.0,-999,-99.99,,,-99.99,,2013-02-04 17:03:00,
2013-02-04 12:12:00,62.0,-99.9,30.15,ENE,64,2.0,4.0,-999,-99.99,,,-99.99,,2013-02-04 17:12:00,
2013-02-04 12:21:00,62.0,-99.9,30.15,East,92,2.0,3.0,-999,-99.99,,,-99.99,,2013-02-04 17:21:00,
2013-02-04 12:32:00,62.0,-99.9,30.15,ENE,78,2.0,4.0,-999,-99.99,,,-99.99,,2013-02-04 17:32:00,
2013-02-04 12:42:00,62.0,-99.9,30.14,East,79,3.0,5.0,-999,-99.99,,,-99.99,,2013-02-04 17:42:00,
2013-02-04 12:52:00,62.0,-99.9,30.14,East,82,3.0,4.0,-999,-99.99,,,-99.99,,2013-02-04 17:52:00,
2013-02-04 13:03:00,64.0,-99.9,30.13,East,82,1.0,4.0,-999,-99.99,,,-99.99,,2013-02-04 18:03:00,
2013-02-04 13:12:00,64.0,-99.9,30.13,ENE,77,3.0,4.0,-999,-99.99,,,-99.99,,2013-02-04 18:12:00,
2013-02-04 13:22:00,64.0,-99.9,30.12,NE,43,3.0,4.0,-999,-99.99,,,-99.99,,2013-02-04 18:22:00,
2013-02-04 13:33:00,65.0,-99.9,30.11,South,175,1.0,2.0,-999,-99.99,,,-99.99,,2013-02-04 18:33:00,
2013-02-04 13:42:00,64.0,-99.9,30.11,SSE,157,2.0,4.0,-999,-99.99,,,-99.99,,2013-02-04 18:42:00,
2013-02-04 13:52:00,65.0,-99.9,30.11,ESE,102,2.0,4.0,-999,-99.99,,,-99.99,,2013-02-04 18:52:00,
2013-02-04 14:02:00,65.0,-99.9,30.11,East,89,2.0,4.0,-999,-99.99,,,-99.99,,2013-02-04 19:02:00,
2013-02-04 14:12:00,65.0,-99.9,30.10,SSE,167,2.0,2.0,-999,-99.99,,,-99.99,,2013-02-04 19:12:00,
2013-02-04 14:23:00,65.0,-99.9,30.09,South,173,3.0,4.0,-999,-99.99,,,-99.99,,2013-02-04 19:23:00,
2013-02-04 14:32:00,66.0,-99.9,30.09,ESE,112,2.0,5.0,-999,-99.99,,,-99.99,,2013-02-04 19:32:00,
2013-02-04 14:42:00,65.0,-99.9,30.09,East,96,2.0,3.0,-999,-99.99,,,-99.99,,2013-02-04 19:42:00,
2013-02-04 14:52:00,65.0,-99.9,30.08,East,82,3.0,5.0,-999,-99.99,,,-99.99,,2013-02-04 19:52:00,
2013-02-04 15:02:00,66.0,-99.9,30.08,East,95,2.0,5.0,-999,-99.99,,,-99.99,,2013-02-04 20:02:00,
2013-02-04 15:12:00,65.0,-99.9,30.08,SSE,156,6.0,7.0,-999,-99.99,,,-99.99,,2013-02-04 20:12:00,
2013-02-04 15:22:00,65.0,-99.9,30.08,SSE,150,2.0,6.0,-999,-99.99,,,-99.99,,2013-02-04 20:22:00,
2013-02-04 15:32:00,65.0,-99.9,30.09,WSW,247,8.0,10.0,-999,-99.99,,,-99.99,,2013-02-04 20:32:00,
2013-02-04 15:42:00,65.0,-99.9,30.09,WSW,256,9.0,11.0,-999,-99.99,,,-99.99,,2013-02-04 20:42:00,
2013-02-04 15:52:00,65.0,-99.9,30.09,WSW,256,10.0,12.0,-999,-99.99,,,-99.99,,2013-02-04 20:52:00,
2013-02-04 16:03:00,65.0,-99.9,30.09,WSW,245,8.0,13.0,-999,-99.99,,,-99.99,,2013-02-04 21:03:00,
2013-02-04 16:12:00,65.0,-99.9,30.09,WSW,254,7.0,11.0,-999,-99.99,,,-99.99,,2013-02-04 21:12:00,
2013-02-04 16:23:00,64.0,-99.9,30.09,WSW,238,9.0,11.0,-999,-99.99,,,-99.99,,2013-02-04 21:23:00,
2013-02-04 16:32:00,64.0,-99.9,30.09,WSW,253,9.0,11.0,-999,-99.99,,,-99.99,,2013-02-04 21:32:00,
2013-02-04 16:43:00,64.0,-99.9,30.09,WSW,257,8.0,10.0,-999,-99.99,,,-99.99,,2013-02-04 21:43:00,
2013-02-04 16:52:00,64.0,-99.9,30.09,WSW,237,9.0,11.0,-999,-99.99,,,-99.99,,2013-02-04 21:52:00,
2013-02-04 17:03:00,64.0,-99.9,30.10,WSW,258,9.0,11.0,-999,-99.99,,,-99.99,,2013-02-04 22:03:00,
2013-02-04 17:12:00,63.0,-99.9,30.10,WSW,244,10.0,11.0,-999,-99.99,,,-99.99,,2013-02-04 22:12:00,
2013-02-04 17:22:00,63.0,-99.9,30.09,WSW,251,6.0,10.0,-999,-99.99,,,-99.99,,2013-02-04 22:22:00,
2013-02-04 17:33:00,64.0,-99.9,30.09,WNW,285,6.0,8.0,-999,-99.99,,,-99.99,,2013-02-04 22:33:00,
2013-02-04 17:42:00,64.0,-99.9,30.09,West,281,5.0,8.0,-999,-99.99,,,-99.99,,2013-02-04 22:42:00,
2013-02-04 17:52:00,64.0,-99.9,30.09,WSW,248,7.0,9.0,-999,-99.99,,,-99.99,,2013-02-04 22:52:00,
2013-02-04 18:02:00,63.0,-99.9,30.10,West,276,8.0,9.0,-999,-99.99,,,-99.99,,2013-02-04 23:02:00,
2013-02-04 18:11:00,63.0,-99.9,30.10,West,271,8.0,10.0,-999,-99.99,,,-99.99,,2013-02-04 23:11:00,
2013-02-04 18:22:00,63.0,-99.9,30.10,West,281,7.0,9.0,-999,-99.99,,,-99.99,,2013-02-04 23:22:00,
2013-02-04 18:32:00,62.0,-99.9,30.10,WNW,286,5.0,7.0,-999,-99.99,,,-99.99,,2013-02-04 23:32:00,
2013-02-04 18:42:00,62.0,-99.9,30.10,WNW,297,5.0,7.0,-999,-99.99,,,-99.99,,2013-02-04 23:42:00,
2013-02-04 18:53:00,62.0,-99.9,30.10,WNW,301,6.0,8.0,-999,-99.99,,,-99.99,,2013-02-04 23:53:00,
2013-02-04 19:02:00,62.0,-99.9,30.10,WNW,302,6.0,8.0,-999,-99.99,,,-99.99,,2013-02-05 00:02:00,
2013-02-04 19:12:00,62.0,-99.9,30.10,NW,309,5.0,8.0,-999,-99.99,,,-99.99,,2013-02-05 00:12:00,
2013-02-04 19:22:00,62.0,-99.9,30.10,NW,310,5.0,7.0,-999,-99.99,,,-99.99,,2013-02-05 00:22:00,
2013-02-04 19:32:00,61.0,-99.9,30.10,NW,312,3.0,5.0,-999,-99.99,,,-99.99,,2013-02-05 00:32:00,
2013-02-04 19:42:00,61.0,-99.9,30.09,WNW,297,4.0,5.0,-999,-99.99,,,-99.99,,2013-02-05 00:42:00,
2013-02-04 19:52:00,61.0,-99.9,30.10,NNW,343,2.0,4.0,-999,-99.99,,,-99.99,,2013-02-05 00:52:00,
2013-02-04 20:02:00,61.0,-99.9,30.10,NNW,346,4.0,7.0,-999,-99.99,,,-99.99,,2013-02-05 01:02:00,
2013-02-04 20:12:00,61.0,-99.9,30.10,NNW,340,5.0,7.0,-999,-99.99,,,-99.99,,2013-02-05 01:12:00,
2013-02-04 20:22:00,60.0,-99.9,30.11,North,349,5.0,7.0,-999,-99.99,,,-99.99,,2013-02-05 01:22:00,
2013-02-04 20:33:00,60.0,-99.9,30.11,NNW,343,5.0,6.0,-999,-99.99,,,-99.99,,2013-02-05 01:33:00,
2013-02-04 20:42:00,60.0,-99.9,30.11,NNW,348,4.0,6.0,-999,-99.99,,,-99.99,,2013-02-05 01:42:00,
2013-02-04 20:52:00,60.0,-99.9,30.11,NNW,344,4.0,5.0,-999,-99.99,,,-99.99,,2013-02-05 01:52:00,
2013-02-04 21:02:00,60.0,-99.9,30.11,NNW,346,4.0,5.0,-999,-99.99,,,-99.99,,2013-02-05 02:02:00,
2013-02-04 21:12:00,60.0,-99.9,30.12,NNW,348,4.0,6.0,-999,-99.99,,,-99.99,,2013-02-05 02:12:00,
2013-02-04 21:22:00,59.0,-99.9,30.12,North,354,4.0,6.0,-999,-99.99,,,-99.99,,2013-02-05 02:22:00,
2013-02-04 21:32:00,59.0,-99.9,30.12,NNW,345,3.0,6.0,-999,-99.99,,,-99.99,,2013-02-05 02:32:00,
2013-02-04 21:42:00,59.0,-99.9,30.12,North,350,3.0,4.0,-999,-99.99,,,-99.99,,2013-02-05 02:42:00,
2013-02-04 21:52:00,58.0,-99.9,30.12,North,356,2.0,4.0,-999,-99.99,,,-99.99,,2013-02-05 02:52:00,
2013-02-04 22:02:00,58.0,-99.9,30.12,North,356,2.0,3.0,-999,-99.99,,,-99.99,,2013-02-05 03:02:00,
2013-02-04 22:11:00,58.0,-99.9,30.12,North,356,2.0,3.0,-999,-99.99,,,-99.99,,2013-02-05 03:11:00,
2013-02-04 22:22:00,58.0,-99.9,30.13,North,349,3.0,4.0,-999,-99.99,,,-99.99,,2013-02-05 03:22:00,
2013-02-04 22:32:00,58.0,-99.9,30.13,North,2,3.0,4.0,-999,-99.99,,,-99.99,,2013-02-05 03:32:00,
2013-02-04 22:42:00,58.0,-99.9,30.13,North,9,2.0,4.0,-999,-99.99,,,-99.99,,2013-02-05 03:42:00,
2013-02-04 22:52:00,57.0,-99.9,30.12,NNE,33,3.0,4.0,-999,-99.99,,,-99.99,,2013-02-05 03:52:00,
2013-02-04 23:01:00,57.0,-99.9,30.12,NNE,28,3.0,4.0,-999,-99.99,,,-99.99,,2013-02-05 04:01:00,
2013-02-04 23:11:00,58.0,-99.9,30.12,NNE,18,4.0,5.0,-999,-99.99,,,-99.99,,2013-02-05 04:11:00,
2013-02-04 23:22:00,58.0,-99.9,30.11,NNE,25,2.0,4.0,-999,-99.99,,,-99.99,,2013-02-05 04:22:00,
2013-02-04 23:32:00,58.0,-99.9,30.11,NNE,13,4.0,5.0,-999,-99.99,,,-99.99,,2013-02-05 04:32:00,
2013-02-04 23:42:00,58.0,-99.9,30.12,North,3,4.0,5.0,-999,-99.99,,,-99.99,,2013-02-05 04:42:00,
2013-02-04 23:52:00,58.0,-99.9,30.12,North,6,3.0,4.0,-999,-99.99,,,-99.99,,2013-02-05 04:52:00,